Location: Katowice
(50.2611°N, 19.0242°E)
Time: 22:10:40
(UTC+02:00)

Tiros 1 - Pass Details

Date: 03 September 2019
Orbit: 630 x 664 km, 48.4° (Epoch: 13 October)

Event Time Altitude Azimuth Distance (km) Brightness Sun altitude
Rises 22:26:12 0° 260° (W) 2,916 10.9 -25.1°
Reaches altitude 10° 22:28:32 10° 258° (WSW) 2,007 10.0 -25.4°
Enters shadow 22:31:34 40° 246° (WSW) 925 7.9 -25.7°
